GW1008 Weather Reports


Display with metric or nautical units.
time (UTC)temp
F
wind
direction
speed
MPH
gust
MPH
rain 1hr
in
rain 24hr
in
rain mn
in
humidity
%
barometer
mb
20260510160036 50 283 1.0 10.0 0.00 0.00 0.00 72 1013.3
20260510155510 50 0 1.0 11.0 0.00 0.00 0.00 72 1013.5
20260510155011 50 262 4.0 11.0 0.00 0.00 0.00 71 1013.5
20260510154530 50 243 3.0 11.0 0.00 0.00 0.00 71 1013.6
20260510154010 50 0 2.0 11.0 0.00 0.00 0.00 72 1013.7
20260510153508 50 273 4.0 13.0 0.00 0.00 0.00 70 1013.8
20260510153032 50 281 2.0 13.0 0.00 0.00 0.00 71 1013.8
20260510152515 50 290 5.0 18.0 0.00 0.00 0.00 70 1014.0
20260510152010 50 281 6.0 18.0 0.00 0.00 0.00 68 1014.2
20260510151528 50 322 3.0 13.0 0.00 0.00 0.00 69 1014.2
20260510151011 50 315 2.0 9.0 0.00 0.00 0.00 68 1014.4
20260510150512 50 0 2.0 13.0 0.00 0.00 0.00 68 1014.5
20260510150030 51 0 2.0 13.0 0.00 0.00 0.00 68 1014.6
20260510145514 51 290 2.0 13.0 0.00 0.00 0.00 67 1014.7
20260510145013 51 277 2.0 11.0 0.00 0.00 0.00 67 1014.8
20260510144530 51 288 1.0 13.0 0.00 0.00 0.00 67 1015.0
20260510144010 51 265 1.0 13.0 0.00 0.00 0.00 68 1015.0
20260510143508 52 274 3.0 15.0 0.00 0.00 0.00 67 1015.1
20260510143039 51 270 1.0 15.0 0.00 0.00 0.00 68 1015.2
20260510142510 51 309 5.0 15.0 0.00 0.00 0.00 66 1015.4
20260510142015 52 339 5.0 12.0 0.00 0.00 0.00 65 1015.5
20260510141528 52 321 3.0 10.0 0.00 0.00 0.00 64 1015.6
20260510141013 52 290 3.0 10.0 0.00 0.00 0.00 65 1015.9
20260510140512 52 295 5.0 13.0 0.00 0.00 0.00 62 1015.8
20260510140028 52 266 4.0 14.0 0.00 0.00 0.00 64 1015.9
20260510135508 52 0 3.0 14.0 0.00 0.00 0.00 64 1016.0
20260510135007 51 294 2.0 8.0 0.00 0.00 0.00 68 1016.2
20260510134526 51 0 0.0 12.0 0.00 0.00 0.00 67 1016.3
20260510134007 51 281 4.0 12.0 0.00 0.00 0.00 66 1016.4
20260510133511 52 282 4.0 12.0 0.00 0.00 0.00 64 1016.6
20260510133027 52 287 2.0 10.0 0.00 0.00 0.00 59 1016.5
20260510132512 52 279 3.0 11.0 0.00 0.00 0.00 58 1016.6
20260510132010 52 0 1.0 12.0 0.00 0.00 0.00 60 1016.7
20260510131529 52 0 3.0 12.0 0.00 0.00 0.00 57 1016.7
20260510131009 52 0 4.0 12.0 0.00 0.00 0.00 57 1016.8
20260510130509 52 280 3.0 11.0 0.00 0.00 0.00 57 1017.0
20260510130033 52 0 0.0 12.0 0.00 0.00 0.00 58 1017.1
20260510125509 53 296 4.0 12.0 0.00 0.00 0.00 55 1017.2
20260510125012 53 0 1.0 9.0 0.00 0.00 0.00 55 1017.2
20260510124547 54 0 1.0 9.0 0.00 0.00 0.00 54 1017.2
20260510124013 54 0 0.0 9.0 0.00 0.00 0.00 53 1017.1
20260510123510 54 295 2.0 9.0 0.00 0.00 0.00 52 1017.2
20260510123030 54 295 0.0 7.0 0.00 0.00 0.00 54 1017.2
20260510122511 54 0 0.0 5.0 0.00 0.00 0.00 53 1017.2
20260510122010 54 0 0.0 12.0 0.00 0.00 0.00 51 1017.3
20260510121527 55 0 1.0 12.0 0.00 0.00 0.00 51 1017.5
20260510121012 55 0 0.0 9.0 0.00 0.00 0.00 53 1017.6
20260510120511 55 0 0.0 9.0 0.00 0.00 0.00 48 1017.7
20260510120033 55 298 2.0 10.0 0.00 0.00 0.00 49 1017.7
20260510115507 55 323 2.0 10.0 0.00 0.00 0.00 53 1018.0
20260510115011 54 318 1.0 12.0 0.00 0.00 0.00 55 1018.1
20260510114526 54 331 4.0 12.0 0.00 0.00 0.00 51 1018.1
20260510114010 54 0 2.0 13.0 0.00 0.00 0.00 56 1018.2
20260510113511 54 334 1.0 13.0 0.00 0.00 0.00 52 1018.4
20260510113033 54 276 2.0 10.0 0.00 0.00 0.00 51 1018.4
20260510112512 54 0 1.0 10.0 0.00 0.00 0.00 53 1018.5
20260510112011 54 0 2.0 11.0 0.00 0.00 0.00 53 1018.7
20260510111551 55 300 3.0 11.0 0.00 0.00 0.00 53 1018.8
20260510111010 54 343 1.0 10.0 0.00 0.00 0.00 53 1018.7
20260510110515 54 280 2.0 11.0 0.00 0.00 0.00 51 1018.7
20260510110031 54 0 3.0 15.0 0.00 0.00 0.00 52 1018.8
20260510105510 54 295 4.0 15.0 0.00 0.00 0.00 52 1018.9
20260510105011 54 269 1.0 14.0 0.00 0.00 0.00 55 1018.8
20260510104538 54 0 4.0 14.0 0.00 0.00 0.00 51 1018.9
20260510104007 53 313 3.0 14.0 0.00 0.00 0.00 55 1019.0
20260510103508 53 261 3.0 13.0 0.00 0.00 0.00 56 1019.1
20260510103035 52 0 3.0 13.0 0.00 0.00 0.00 56 1019.1
20260510102508 52 317 5.0 13.0 0.00 0.00 0.00 55 1019.2
20260510102010 52 271 3.0 13.0 0.00 0.00 0.00 56 1019.4
20260510101527 52 49 1.0 8.0 0.00 0.00 0.00 59 1019.5
20260510101013 51 0 1.0 14.0 0.00 0.00 0.00 60 1019.7
20260510100516 51 0 2.0 14.0 0.00 0.00 0.00 59 1019.8
20260510100028 51 0 4.0 12.0 0.00 0.00 0.00 58 1019.8
20260510095508 50 337 3.0 12.0 0.00 0.00 0.00 58 1019.9
20260510095011 49 316 4.0 12.0 0.00 0.00 0.00 60 1019.8
20260510094531 49 268 2.0 11.0 0.00 0.00 0.00 60 1019.9
20260510094008 49 275 1.0 12.0 0.00 0.00 0.00 60 1020.0
20260510093510 49 0 0.0 14.0 0.00 0.00 0.00 61 1020.1
20260510093028 49 300 4.0 14.0 0.00 0.00 0.00 61 1020.1
20260510092512 49 274 2.0 10.0 0.00 0.00 0.00 62 1020.3
20260510092012 48 301 2.0 10.0 0.00 0.00 0.00 61 1020.3
20260510091546 48 285 1.0 12.0 0.00 0.00 0.00 61 1020.2
20260510091010 49 265 3.0 15.0 0.00 0.00 0.00 60 1020.4
20260510090509 49 0 1.0 15.0 0.00 0.00 0.00 61 1020.4
20260510090026 49 0 3.0 14.0 0.00 0.00 0.00 61 1020.6
20260510085512 49 261 2.0 13.0 0.00 0.00 0.00 64 1020.6
20260510085009 48 0 1.0 11.0 0.00 0.00 0.00 62 1020.6
20260510084528 47 0 1.0 8.0 0.00 0.00 0.00 62 1020.6
20260510084009 47 0 0.0 10.0 0.00 0.00 0.00 63 1020.7
20260510083517 46 296 2.0 12.0 0.00 0.00 0.00 64 1020.8
20260510083029 46 0 0.0 12.0 0.00 0.00 0.00 64 1020.9
20260510082508 46 269 3.0 9.0 0.00 0.00 0.00 64 1021.0
20260510082008 46 0 1.0 8.0 0.00 0.00 0.00 63 1021.2
20260510081536 46 0 0.0 8.0 0.00 0.00 0.00 65 1021.2
20260510081009 45 0 0.0 7.0 0.00 0.00 0.00 65 1021.4
20260510080510 44 238 0.0 7.0 0.00 0.00 0.00 66 1021.4
20260510080029 44 284 1.0 7.0 0.00 0.00 0.00 66 1021.4
20260510075514 43 0 0.0 8.0 0.00 0.00 0.00 66 1021.5
20260510075007 43 0 0.0 8.0 0.00 0.00 0.00 68 1021.6
20260510074530 42 0 0.0 0.0 0.00 0.00 0.00 68 1021.7
20260510074019 42 0 0.0 0.0 0.00 0.00 0.00 66 1021.7
20260510073522 42 0 0.0 0.0 0.00 0.00 0.00 68 1021.7
20260510073036 42 0 0.0 0.0 0.00 0.00 0.00 67 1021.7
20260510072511 42 0 0.0 0.0 0.00 0.00 0.00 67 1021.9
20260510072009 41 0 0.0 0.0 0.00 0.00 0.00 68 1021.9
20260510071536 41 0 0.0 0.0 0.00 0.00 0.00 69 1022.0
20260510071009 41 0 0.0 0.0 0.00 0.00 0.00 71 1022.1
20260510070509 40 0 0.0 0.0 0.00 0.00 0.00 71 1022.3
20260510070034 40 0 0.0 0.0 0.00 0.00 0.00 73 1022.2
20260510065510 40 0 0.0 1.0 0.00 0.00 0.00 73 1022.3
20260510065011 39 0 0.0 3.0 0.00 0.00 0.00 75 1022.2
20260510064549 39 0 0.0 3.0 0.00 0.00 0.00 75 1022.3
20260510064009 39 0 0.0 4.0 0.00 0.00 0.00 76 1022.3
20260510063507 38 0 0.0 5.0 0.00 0.00 0.00 77 1022.3
20260510063038 38 277 1.0 6.0 0.00 0.00 0.00 78 1022.2
20260510062511 37 277 1.0 6.0 0.00 0.00 0.00 79 1022.2
20260510062010 37 281 1.0 4.0 0.00 0.00 0.00 81 1022.3
20260510061542 36 0 0.0 4.0 0.00 0.00 0.00 82 1022.3
20260510061010 36 277 1.0 4.0 0.00 0.00 0.00 84 1022.3
20260510060509 35 0 0.0 4.0 0.00 0.00 0.00 85 1022.3
20260510060036 34 0 0.0 3.0 0.00 0.00 0.00 86 1022.4
20260510055510 33 254 0.0 3.0 0.00 0.00 0.00 88 1022.4
20260510055009 33 0 0.0 0.0 0.00 0.00 0.00 87 1022.6
20260510054528 32 0 0.0 0.0 0.00 0.00 0.00 87 1022.6
20260510054007 32 0 0.0 0.0 0.00 0.00 0.00 87 1022.6
20260510053513 32 0 0.0 0.0 0.00 0.00 0.00 87 1022.6
20260510053029 31 0 0.0 0.0 0.00 0.00 0.00 87 1022.6
20260510052515 31 0 0.0 0.0 0.00 0.00 0.00 87 1022.8
20260510052012 31 0 0.0 0.0 0.00 0.00 0.00 87 1022.9
20260510051526 31 0 0.0 0.0 0.00 0.00 0.00 87 1022.9
20260510051009 30 0 0.0 0.0 0.00 0.00 0.00 87 1023.0
20260510050509 30 0 0.0 0.0 0.00 0.00 0.00 87 1023.0
20260510050029 30 0 0.0 0.0 0.00 0.00 0.00 87 1022.9
20260510045510 30 0 0.0 0.0 0.00 0.00 0.00 86 1023.0
20260510045017 30 0 0.0 0.0 0.00 0.00 0.00 86 1023.0
20260510044533 29 0 0.0 0.0 0.00 0.00 0.00 86 1023.2
20260510044012 29 0 0.0 0.0 0.00 0.00 0.00 85 1023.2
20260510043511 29 0 0.0 0.0 0.00 0.00 0.00 85 1023.3
20260510043030 29 0 0.0 0.0 0.00 0.00 0.00 85 1023.3
20260510042510 29 0 0.0 0.0 0.00 0.00 0.00 85 1023.3
20260510042012 29 0 0.0 0.0 0.00 0.00 0.00 85 1023.3
20260510041526 29 0 0.0 0.0 0.00 0.00 0.00 85 1023.4
20260510041011 29 0 0.0 0.0 0.00 0.00 0.00 85 1023.5
20260510040511 30 0 0.0 0.0 0.00 0.00 0.00 85 1023.5
20260510040027 29 0 0.0 0.0 0.00 0.00 0.00 85 1023.4
20260510035510 29 0 0.0 0.0 0.00 0.00 0.00 84 1023.5
20260510035010 30 0 0.0 0.0 0.00 0.00 0.00 84 1023.5
20260510034528 30 0 0.0 0.0 0.00 0.00 0.00 84 1023.5
20260510034011 30 0 0.0 2.0 0.00 0.00 0.00 84 1023.6
20260510033507 30 0 0.0 2.0 0.00 0.00 0.00 85 1023.6
20260510033028 30 0 0.0 2.0 0.00 0.00 0.00 85 1023.7
20260510032511 30 0 0.0 0.0 0.00 0.00 0.00 86 1023.7
20260510032011 30 0 0.0 0.0 0.00 0.00 0.00 85 1023.7
20260510031533 30 0 0.0 0.0 0.00 0.00 0.00 84 1023.7
20260510031008 30 0 0.0 0.0 0.00 0.00 0.00 83 1023.6
20260510030508 30 0 0.0 0.0 0.00 0.00 0.00 83 1023.7
20260510030027 30 0 0.0 0.0 0.00 0.00 0.00 83 1023.8
20260510025513 30 0 0.0 0.0 0.00 0.00 0.00 83 1023.8
20260510025013 31 0 0.0 0.0 0.00 0.00 0.00 83 1023.9
20260510024532 31 0 0.0 0.0 0.00 0.00 0.00 83 1023.9
20260510024010 31 0 0.0 0.0 0.00 0.00 0.00 83 1023.8
20260510023510 31 0 0.0 0.0 0.00 0.00 0.00 83 1023.8
20260510023030 31 0 0.0 0.0 0.00 0.00 0.00 83 1023.8
20260510022508 32 0 0.0 0.0 0.00 0.00 0.00 83 1023.9
20260510022011 32 0 0.0 0.0 0.00 0.00 0.00 83 1024.0
20260510021528 32 0 0.0 0.0 0.00 0.00 0.00 83 1024.0
20260510021010 32 0 0.0 0.0 0.00 0.00 0.00 82 1023.9
20260510020509 32 0 0.0 0.0 0.00 0.00 0.00 82 1023.9
20260510020028 32 0 0.0 0.0 0.00 0.00 0.00 83 1024.0
20260510015509 33 0 0.0 0.0 0.00 0.00 0.00 83 1024.0
20260510015010 32 0 0.0 0.0 0.00 0.00 0.00 83 1024.0
20260510014531 32 0 0.0 0.0 0.00 0.00 0.00 82 1024.0
20260510014011 32 0 0.0 0.0 0.00 0.00 0.00 82 1024.1
20260510013511 33 0 0.0 0.0 0.00 0.00 0.00 80 1024.1
20260510013026 33 0 0.0 0.0 0.00 0.00 0.00 79 1024.1
20260510012508 33 0 0.0 0.0 0.00 0.00 0.00 80 1024.2
20260510012009 34 0 0.0 0.0 0.00 0.00 0.00 79 1024.2
20260510011530 34 0 0.0 0.0 0.00 0.00 0.00 79 1024.3
20260510011013 34 0 0.0 0.0 0.00 0.00 0.00 79 1024.4
20260510010510 35 0 0.0 0.0 0.00 0.00 0.00 79 1024.4
20260510010030 35 0 0.0 0.0 0.00 0.00 0.00 79 1024.4
20260510005507 35 0 0.0 0.0 0.00 0.00 0.00 78 1024.4
20260510005008 36 0 0.0 0.0 0.00 0.00 0.00 77 1024.5
20260510004527 36 0 0.0 0.0 0.00 0.00 0.00 77 1024.6
20260510004015 36 0 0.0 0.0 0.00 0.00 0.00 82 1024.6
20260510003516 37 0 0.0 0.0 0.00 0.00 0.00 77 1024.6
20260510003043 37 0 0.0 0.0 0.00 0.00 0.00 77 1024.7
20260510002511 37 0 0.0 0.0 0.00 0.00 0.00 77 1024.6
20260510002010 37 0 0.0 0.0 0.00 0.00 0.00 77 1024.6
20260510001528 37 0 0.0 0.0 0.00 0.00 0.00 78 1024.7
20260510001008 37 0 0.0 2.0 0.00 0.00 0.00 78 1024.7
20260510000511 37 0 0.0 2.0 0.00 0.00 0.00 77 1024.8
20260510000030 38 0 0.0 2.0 0.00 0.00 0.00 77 1024.8
20260509235510 38 0 0.0 2.0 0.00 0.00 0.00 76 1024.8
20260509235012 38 0 0.0 0.0 0.00 0.00 0.00 75 1024.9
20260509234544 39 0 0.0 0.0 0.00 0.00 0.00 76 1024.9
20260509234009 39 0 0.0 0.0 0.00 0.00 0.00 76 1025.0
20260509233508 39 0 0.0 0.0 0.00 0.00 0.00 76 1024.9
20260509233040 39 0 0.0 0.0 0.00 0.00 0.00 76 1024.8
20260509232510 40 0 0.0 0.0 0.00 0.00 0.00 76 1024.9
20260509232011 40 0 0.0 0.0 0.00 0.00 0.00 76 1024.9
20260509231530 40 0 0.0 0.0 0.00 0.00 0.00 76 1025.0
20260509231011 40 0 0.0 0.0 0.00 0.00 0.00 75 1025.0
20260509230510 40 0 0.0 3.0 0.00 0.00 0.00 76 1025.2
20260509230028 39 0 0.0 3.0 0.00 0.00 0.00 76 1025.2
20260509225511 39 0 0.0 3.0 0.00 0.00 0.00 76 1025.3
20260509225009 39 0 0.0 1.0 0.00 0.00 0.00 77 1025.2
20260509224531 40 0 0.0 0.0 0.00 0.00 0.00 78 1025.3
20260509224013 40 0 0.0 0.0 0.00 0.00 0.00 77 1025.2
20260509223508 40 0 0.0 0.0 0.00 0.00 0.00 77 1025.2
20260509223035 40 0 0.0 0.0 0.00 0.00 0.00 76 1025.2
20260509222511 40 0 0.0 0.0 0.00 0.00 0.00 76 1025.2
20260509222011 40 0 0.0 0.0 0.00 0.00 0.00 75 1025.2
20260509221529 40 0 0.0 0.0 0.00 0.00 0.00 75 1025.3
20260509221014 40 0 0.0 0.0 0.00 0.00 0.00 74 1025.3
20260509220507 40 0 0.0 0.0 0.00 0.00 0.00 75 1025.4
20260509220029 40 0 0.0 0.0 0.00 0.00 0.00 75 1025.5
20260509215510 40 0 0.0 0.0 0.00 0.01 0.00 75 1025.5
20260509215017 40 0 0.0 0.0 0.00 0.01 0.00 76 1025.5
20260509214529 40 0 0.0 0.0 0.00 0.01 0.00 75 1025.5
20260509214012 40 0 0.0 0.0 0.00 0.01 0.00 75 1025.3
20260509213512 40 0 0.0 0.0 0.00 0.01 0.00 75 1025.4
20260509213030 40 0 0.0 0.0 0.00 0.01 0.00 76 1025.5
20260509212513 40 0 0.0 0.0 0.00 0.01 0.00 76 1025.5
20260509212014 40 0 0.0 0.0 0.00 0.01 0.00 77 1025.5
20260509211528 40 0 0.0 0.0 0.00 0.01 0.00 78 1025.4
20260509211011 40 0 0.0 0.0 0.00 0.01 0.00 77 1025.4
20260509210510 40 0 0.0 0.0 0.00 0.01 0.00 77 1025.5
20260509210030 40 0 0.0 0.0 0.00 0.01 0.00 76 1025.5
20260509205508 40 0 0.0 0.0 0.00 0.03 0.00 76 1025.5
20260509205008 40 0 0.0 0.0 0.00 0.03 0.00 75 1025.4
20260509204534 40 0 0.0 0.0 0.00 0.03 0.00 73 1025.4
20260509204017 41 0 0.0 0.0 0.00 0.03 0.00 73 1025.3
20260509203511 41 0 0.0 0.0 0.00 0.03 0.00 72 1025.3
20260509203035 41 0 0.0 0.0 0.00 0.03 0.00 71 1025.3
20260509202512 42 0 0.0 0.0 0.00 0.03 0.00 70 1025.3
20260509202013 42 0 0.0 0.0 0.00 0.03 0.00 70 1025.2
20260509201529 43 0 0.0 0.0 0.00 0.03 0.00 69 1025.1
20260509201014 43 0 0.0 0.0 0.00 0.03 0.00 69 1025.0
20260509200517 43 0 0.0 0.0 0.00 0.03 0.00 68 1025.1
20260509200029 44 0 0.0 0.0 0.00 0.03 0.00 67 1025.1
20260509195511 44 0 0.0 0.0 0.00 0.04 0.00 66 1025.1
20260509195015 45 0 0.0 0.0 0.00 0.04 0.00 64 1025.0
20260509194530 45 0 0.0 0.0 0.00 0.04 0.00 64 1025.0
20260509194013 45 0 0.0 0.0 0.00 0.04 0.00 62 1025.0
20260509193509 45 0 0.0 0.0 0.00 0.04 0.00 61 1025.1
20260509193029 46 0 0.0 0.0 0.00 0.04 0.00 60 1025.0
20260509192510 46 0 0.0 0.0 0.00 0.04 0.00 60 1025.0
20260509192012 47 0 0.0 0.0 0.00 0.04 0.00 59 1025.0
20260509191528 47 0 0.0 0.0 0.00 0.04 0.00 58 1024.9
20260509191015 48 0 0.0 1.0 0.00 0.04 0.00 56 1024.8
20260509190511 48 0 0.0 1.0 0.00 0.04 0.00 55 1024.7
20260509190034 49 0 0.0 2.0 0.00 0.04 0.00 55 1024.7
20260509185511 49 0 0.0 3.0 0.00 0.07 0.00 53 1024.7
20260509185011 49 0 0.0 3.0 0.00 0.07 0.00 54 1024.7
20260509184538 50 0 0.0 3.0 0.00 0.07 0.00 53 1024.6
20260509184012 50 0 0.0 4.0 0.00 0.07 0.00 53 1024.5
20260509183508 49 44 0.0 4.0 0.00 0.07 0.00 52 1024.5
20260509183033 49 0 0.0 6.0 0.00 0.07 0.00 52 1024.4
20260509182511 49 0 1.0 6.0 0.00 0.07 0.00 52 1024.5
20260509182013 49 0 0.0 4.0 0.00 0.07 0.00 52 1024.4
20260509181529 49 0 0.0 9.0 0.00 0.07 0.00 53 1024.4
20260509181008 49 0 0.0 9.0 0.00 0.07 0.00 52 1024.3
20260509180507 49 0 0.0 9.0 0.00 0.07 0.00 52 1024.3
20260509180029 49 0 0.0 4.0 0.00 0.07 0.00 54 1024.2
20260509175517 49 0 0.0 4.0 0.00 0.07 0.00 54 1024.2
20260509175011 50 0 0.0 4.0 0.00 0.07 0.00 52 1024.1
20260509174527 50 0 0.0 5.0 0.00 0.07 0.00 53 1024.1
20260509174011 50 0 0.0 5.0 0.00 0.07 0.00 52 1024.1
20260509173515 51 0 0.0 5.0 0.00 0.07 0.00 52 1024.0
20260509173031 51 0 0.0 8.0 0.00 0.07 0.00 51 1024.0
20260509172511 51 80 0.0 8.0 0.00 0.07 0.00 50 1024.0
20260509172009 51 0 1.0 7.0 0.00 0.07 0.00 50 1024.0
20260509171537 51 0 0.0 4.0 0.00 0.07 0.00 50 1024.0
20260509171015 51 0 0.0 3.0 0.00 0.07 0.00 50 1023.9
20260509170508 51 338 0.0 5.0 0.00 0.07 0.00 48 1023.9
20260509170031 50 0 0.0 5.0 0.00 0.07 0.00 51 1023.8
20260509165508 49 0 0.0 1.0 0.00 0.08 0.00 53 1023.9
20260509165008 49 0 0.0 4.0 0.00 0.08 0.00 52 1023.9
20260509164528 49 0 0.0 5.0 0.00 0.08 0.00 52 1023.9
20260509164011 49 0 0.0 5.0 0.00 0.08 0.00 54 1024.1
20260509163509 50 0 1.0 11.0 0.00 0.08 0.00 54 1024.1
20260509163051 50 76 2.0 11.0 0.00 0.08 0.00 52 1024.0
20260509162517 51 0 1.0 10.0 0.00 0.08 0.00 54 1024.0
20260509162010 51 322 0.0 10.0 0.00 0.08 0.00 52 1024.0
20260509161537 51 0 0.0 10.0 0.00 0.08 0.00 53 1024.0
20260509161014 51 79 1.0 10.0 0.00 0.08 0.00 53 1024.0
20260509160509 51 0 0.0 9.0 0.00 0.08 0.00 53 1023.9